GW0890 Weather Reports


time (UTC)temp
C
wind
direction
speed
KPH
gust
KPH
rain 1hr
cm
rain 24hr
cm
rain mn
cm
humidity
%
barometer
mb
20221203054518 15 58 9.7 38.6 0.00 0.00 0.00 49 1019.0
20221203053016 14 315 20.9 30.6 0.00 0.00 0.00 46 1018.1
20221203051510 14 9 8.0 25.7 0.00 0.00 0.00 44 1019.0
20221203050007 14 360 20.9 35.4 0.00 0.00 0.00 41 1018.8
20221203044505 14 309 12.9 30.6 0.00 0.00 0.00 41 1019.1
20221203043004 13 282 12.9 19.3 0.00 0.00 0.00 40 1019.4
20221203041536 13 305 12.9 17.7 0.00 0.00 0.00 40 1019.7
20221203040032 12 299 3.2 9.7 0.00 0.00 0.00 41 1020.0
20221203034527 12 277 1.6 12.9 0.00 0.00 0.00 42 1020.0
20221203033027 12 180 4.8 9.7 0.00 0.00 0.00 47 1019.9
20221203031527 12 9 1.6 9.7 0.00 0.00 0.00 39 1020.0
20221203030027 12 20 0.0 4.8 0.00 0.00 0.00 42 1020.0
20221203024556 13 167 0.0 11.3 0.00 0.00 0.00 36 1020.4
20221203023055 12 288 9.7 16.1 0.00 0.00 0.00 38 1020.0
20221203021553 12 303 1.6 11.3 0.00 0.00 0.00 40 1020.7
20221203020051 11 288 0.0 8.0 0.00 0.00 0.00 46 1020.5
20221203014551 10 55 3.2 11.3 0.00 0.00 0.00 44 1020.8
20221203013058 8 229 4.8 8.0 0.00 0.00 0.00 62 1020.3
20221203011545 8 292 1.6 6.4 0.00 0.00 0.00 64 1020.6
20221203010044 8 142 4.8 8.0 0.00 0.00 0.00 59 1020.5
20221203004543 7 227 4.8 8.0 0.00 0.00 0.00 63 1020.5
20221203003043 7 190 0.0 8.0 0.00 0.00 0.00 64 1020.8
20221203001551 7 196 1.6 11.3 0.00 0.00 0.00 63 1020.7
20221203000039 7 223 0.0 8.0 0.00 0.00 0.00 62 1020.8
20221202234538 7 219 0.0 8.0 0.00 0.00 0.00 62 1021.2
20221202233047 7 90 0.0 3.2 0.00 0.00 0.00 61 1021.6
20221202231506 7 206 1.6 3.2 0.00 0.00 0.00 60 1021.0
20221202230007 8 229 3.2 8.0 0.00 0.00 0.00 58 1020.9
20221202224502 8 226 3.2 8.0 0.00 0.00 0.00 54 1020.9
20221202223100 10 213 6.4 8.0 0.00 0.00 0.00 52 1021.0
20221202221604 11 197 0.0 6.4 0.00 0.00 0.00 44 1021.3
20221202220102 13 214 4.8 8.0 0.00 0.00 0.00 38 1021.1
20221202214533 15 257 0.0 3.2 0.00 0.00 0.00 33 1021.2
20221202213027 15 280 1.6 6.4 0.00 0.00 0.00 24 1021.4
20221202211524 16 276 6.4 12.9 0.00 0.00 0.00 23 1021.4
20221202210030 16 291 9.7 16.1 0.00 0.00 0.00 24 1021.7
20221202204527 16 288 8.0 12.9 0.00 0.00 0.00 24 1021.8
20221202203019 16 308 9.7 14.5 0.00 0.00 0.00 24 1021.9
20221202201517 16 294 9.7 16.1 0.00 0.00 0.00 24 1021.8
20221202200016 16 284 8.0 16.1 0.00 0.00 0.00 24 1021.9
20221202194514 16 281 9.7 17.7 0.00 0.00 0.00 24 1022.1
20221202193016 15 277 8.0 11.3 0.00 0.00 0.00 26 1022.4
20221202191504 15 286 0.0 8.0 0.00 0.00 0.00 27 1022.8
20221202190001 14 323 4.8 9.7 0.00 0.00 0.00 27 1023.1
20221202184559 14 355 9.7 14.5 0.00 0.00 0.00 28 1023.5
20221202183107 14 288 4.8 11.3 0.00 0.00 0.00 28 1023.7
20221202181555 13 309 11.3 16.1 0.00 0.00 0.00 29 1023.8
20221202180025 13 295 6.4 14.5 0.00 0.00 0.00 32 1024.5
20221202174520 12 271 6.4 12.9 0.00 0.00 0.00 35 1024.9
20221202173008 11 281 3.2 6.4 0.00 0.00 0.00 42 1025.3
20221202171508 10 198 0.0 3.2 0.00 0.00 0.00 44 1025.6
20221202170001 10 205 1.6 6.4 0.00 0.00 0.00 46 1025.8
20221202164600 9 273 3.2 6.4 0.00 0.00 0.00 47 1026.4
20221202163051 8 293 0.0 6.4 0.00 0.00 0.00 51 1026.8
20221202161548 6 329 0.0 1.6 0.00 0.00 0.00 64 1027.2
20221202160044 5 328 0.0 3.2 0.00 0.00 0.00 71 1027.3
20221202154544 3 343 0.0 6.4 0.00 0.00 0.00 76 1027.3
20221202153005 1 355 1.6 4.8 0.00 0.00 0.00 80 1027.5
20221202151610 0 280 1.6 6.4 0.00 0.00 0.00 82 1027.5
20221202150046 0 279 1.6 3.2 0.00 0.00 0.00 82 1027.8
20221202144543 0 280 0.0 1.6 0.00 0.00 0.00 83 1028.0
20221202143043 0 280 0.0 6.4 0.00 0.00 0.00 85 1028.0
20221202141538 -1 271 0.0 3.2 0.00 0.00 0.00 85 1028.1
20221202140043 -2 270 0.0 3.2 0.00 0.00 0.00 88 1028.2
20221202134533 -3 240 0.0 1.6 0.00 0.00 0.00 89 1028.1
20221202133036 -3 262 3.2 6.4 0.00 0.00 0.00 89 1028.0
20221202131533 -3 259 0.0 1.6 0.00 0.00 0.00 90 1028.1
20221202130040 -4 259 0.0 6.4 0.00 0.00 0.00 91 1028.3
20221202124524 -5 259 0.0 0.0 0.00 0.00 0.00 91 1028.5
20221202123024 -5 260 0.0 0.0 0.00 0.00 0.00 91 1028.1
20221202121622 -5 260 0.0 0.0 0.00 0.00 0.00 91 1028.2
20221202120006 -5 260 0.0 6.4 0.00 0.00 0.00 91 1028.3
20221202114513 -5 260 0.0 3.2 0.00 0.00 0.00 92 1028.5
20221202113002 -5 260 0.0 8.0 0.00 0.00 0.00 92 1028.6
20221202111501 -5 257 4.8 8.0 0.00 0.00 0.00 92 1028.5
20221202110110 -5 235 0.0 3.2 0.00 0.00 0.00 91 1028.2
20221202104615 -5 235 0.0 3.2 0.00 0.00 0.00 92 1028.1
20221202103101 -5 235 1.6 3.2 0.00 0.00 0.00 91 1028.4
20221202101555 -5 235 0.0 0.0 0.00 0.00 0.00 91 1028.4
20221202100105 -5 235 0.0 0.0 0.00 0.00 0.00 91 1028.5
20221202094601 -5 235 0.0 3.2 0.00 0.00 0.00 91 1028.2
20221202093051 -5 235 0.0 1.6 0.00 0.00 0.00 91 1028.3
20221202091605 -5 235 0.0 0.0 0.00 0.00 0.00 91 1028.5
20221202090052 -5 235 0.0 0.0 0.00 0.00 0.00 90 1028.2
20221202084549 -5 235 0.0 0.0 0.00 0.00 0.00 89 1028.5
20221202083048 -5 235 0.0 0.0 0.00 0.00 0.00 89 1028.5
20221202081544 -5 235 0.0 0.0 0.00 0.00 0.00 88 1028.7
20221202080043 -4 235 0.0 0.0 0.00 0.00 0.00 88 1028.6
20221202074542 -5 235 0.0 0.0 0.00 0.00 0.00 89 1028.4
20221202073039 -5 235 0.0 0.0 0.00 0.00 0.00 89 1028.5
20221202071539 -5 235 0.0 6.4 0.00 0.00 0.00 89 1028.2
20221202070038 -4 235 0.0 1.6 0.00 0.00 0.00 89 1028.2
20221202064545 -4 235 0.0 3.2 0.00 0.00 0.00 90 1028.3
20221202063009 -5 235 0.0 3.2 0.00 0.00 0.00 89 1028.4
20221202061504 -5 235 1.6 6.4 0.00 0.00 0.00 89 1028.6
20221202060104 -5 235 0.0 0.0 0.00 0.00 0.00 89 1028.8